Location: Coffee Ditch
(40.9640°N, 122.7500°W)
Time: 07:50:40
(UTC+00:00)

Cosmos 1821 Rocket - Pass Details

Date: 08 September 2024
Orbit: 943 x 1005 km, 82.9° (Epoch: 05 October)

Event Time Altitude Azimuth Distance (km) Brightness Sun altitude
Rises 12:06:58 0° 346° (NNW) 3,625 7.1 -18.6°
Reaches altitude 10° 12:09:33 10° 341° (NNW) 2,672 6.4 -18.1°
Maximum altitude 12:15:20 47° 270° (W) 1,228 4.1 -17.1°
Drops below altitude 10° 12:21:05 10° 198° (SSW) 2,658 5.9 -16.1°
Enters shadow 12:22:15 - 195° (SSW) 3,084 6.3 -15.9°
